370  
ASUS44 KOUN 050810  
RWROK  
 
WEATHER ROUNDUP FOR OKLAHOMA  
NATIONAL WEATHER SERVICE NORMAN OK  
200 AM CST MON DEC 05 2016  
 
NOTE: "FAIR" INDICATES FEW OR NO CLOUDS BELOW 12,000 FEET WITH NO  
SIGNIFICANT WEATHER AND/OR S TO VISIBILITY
.  
 
OKZ001>007-009>012-014-015-017-050900-  
NORTHWEST OKLAHOMA AND THE PANHANDLE  
 
CITY SKY/WX TMP DP RH WIND PRES REMARKS
 
GAGE CLEAR 34 28 79 S14 29.94F WCI 25  
GUYMON CLOUDY 30 24 78 S10 29.85F WCI 21  
ENID/WOODRING CLOUDY 32 32 100 S5 29.99S FOG WCI 27  

 
 
OKZ016-021>023-033>039-044-045-050900-  
SOUTHWEST OKLAHOMA  
 
CITY SKY/WX TMP DP RH WIND PRES REMARKS
 
LAWTON/REGL FOG 33 32 96 SE3 30.02F VSB 3/4  
LAWTON/FT SILL PTCLDY 37 37 100 CALM 30.00F  
FREDERICK CLOUDY 38 37 97 W5 29.98F WCI 34  
CLINTON CLOUDY 37 32 82 S9 30.00F WCI 30  
HOBART CLOUDY 37 35 92 S10 30.01F WCI 30  
ALTUS AFB PTCLDY 32 28 86 CALM 30.00F  

 
 
OKZ018>020-024>031-050900-  
CENTRAL OKLAHOMA  
 
CITY SKY/WX TMP DP RH WIND PRES REMARKS
 
OKLAHOMA CITY CLOUDY 34 33 96 CALM 30.02F FOG  
OKC/WILEY POST PTCLDY 33 31 92 S6 30.02F WCI 28  
OKC/TINKER AFB CLOUDY 39 37 90 SW3 30.00F  
STILLWATER CLOUDY 31 31 100 SE3 30.02F  
GUTHRIE PTCLDY 37 36 96 SE5 30.01F WCI 33  

 
 
OKZ008-013-054>072-050900-  
NORTHEAST OKLAHOMA  
 
CITY SKY/WX TMP DP RH WIND PRES REMARKS
 
TULSA CLOUDY 40 39 97 S6 30.03S  
TULSA/JONES PTCLDY 34 32 92 CALM 30.05S FOG  
PONCA CITY CLOUDY 35 32 88 S5 30.00S WCI 31  
BARTLESVILLE CLOUDY 27 25 92 CALM 30.05R  
MUSKOGEE FOG 33 33 100 S3 30.07S VSB 1/4  

 
 
OKZ032-040>043-046>053-073>077-050900-  
SOUTH CENTRAL/SOUTHEAST OKLAHOMA  
 
CITY SKY/WX TMP DP RH WIND PRES REMARKS
 
ARDMORE/DWNTWN CLOUDY 37 36 93 CALM 30.03F  
MCALESTER CLOUDY 37 34 89 CALM 30.05S  

 
 
 
 
CLICK HERE TO GO TO PREVIOUS BULLETINS.

The Nexlab OK Page Main Text Page